Time,TemperatureF,DewpointF,PressureIn,WindDirection,WindDirectionDegrees,WindSpeedMPH,WindSpeedGustMPH,Humidity,HourlyPrecipIn,Conditions,Clouds,dailyrainin,SoftwareType,DateUTC
2013-05-12 00:00:00,54.5,53.1,29.90,ESE,107,5.4,5.4,95,0.01,CLR,,0.50,WeatherDisplay:10.37,2013-05-12 04:00:00,
2013-05-12 00:01:00,54.4,52.7,29.90,SSE,161,5.8,5.8,94,0.01,RA,,0.00,WeatherDisplay:10.37,2013-05-12 04:01:00,
2013-05-12 00:06:00,54.3,52.6,29.90,SE,143,0.0,0.0,94,0.01,RA,,0.00,WeatherDisplay:10.37,2013-05-12 04:06:00,
2013-05-12 00:11:00,54.2,52.2,29.91,NE,41,5.8,5.8,93,0.01,CLR,,0.00,WeatherDisplay:10.37,2013-05-12 04:11:00,
2013-05-12 00:16:00,54.1,52.4,29.90,SW,234,1.3,0.0,94,0.00,CLR,,0.00,WeatherDisplay:10.37,2013-05-12 04:16:00,
2013-05-12 00:21:00,54.1,52.4,29.90,SW,235,0.0,0.0,94,0.00,CLR,,0.00,WeatherDisplay:10.37,2013-05-12 04:21:00,
2013-05-12 00:26:00,54.0,52.0,29.90,North,351,3.5,3.5,93,0.00,CLR,,0.00,WeatherDisplay:10.37,2013-05-12 04:26:00,
2013-05-12 00:31:00,53.8,51.8,29.90,NW,324,3.5,3.5,93,0.00,CLR,,0.00,WeatherDisplay:10.37,2013-05-12 04:31:00,
2013-05-12 00:36:00,53.7,51.7,29.90,WNW,302,3.5,3.5,93,0.00,CLR,,0.00,WeatherDisplay:10.37,2013-05-12 04:36:00,
2013-05-12 00:41:00,53.6,51.6,29.90,WNW,302,0.0,0.0,93,0.00,CLR,,0.00,WeatherDisplay:10.37,2013-05-12 04:41:00,
2013-05-12 00:46:00,53.5,51.8,29.90,WNW,302,0.0,0.0,94,0.00,CLR,,0.00,WeatherDisplay:10.37,2013-05-12 04:46:00,
2013-05-12 00:51:00,53.4,51.4,29.90,NNE,29,4.6,4.6,93,0.00,CLR,,0.00,WeatherDisplay:10.37,2013-05-12 04:51:00,
2013-05-12 00:56:00,53.2,51.2,29.90,SSE,154,4.6,4.6,93,0.00,CLR,,0.00,WeatherDisplay:10.37,2013-05-12 04:56:00,
2013-05-12 01:01:00,53.0,50.7,29.91,East,92,0.0,0.0,92,0.00,CLR,,0.00,WeatherDisplay:10.37,2013-05-12 05:01:00,
2013-05-12 01:06:00,52.9,50.6,29.91,NNE,30,6.9,6.9,92,0.00,CLR,,0.00,WeatherDisplay:10.37,2013-05-12 05:06:00,
2013-05-12 01:11:00,52.7,50.4,29.90,ENE,71,9.2,9.2,92,0.00,CLR,,0.00,WeatherDisplay:10.37,2013-05-12 05:11:00,
2013-05-12 01:16:00,52.4,49.8,29.90,NE,46,8.1,8.1,91,0.00,CLR,,0.00,WeatherDisplay:10.37,2013-05-12 05:16:00,
2013-05-12 01:21:00,52.2,49.9,29.91,NW,321,5.8,5.8,92,0.00,CLR,,0.00,WeatherDisplay:10.37,2013-05-12 05:21:00,
2013-05-12 01:26:00,52.0,49.2,29.91,NNE,13,4.6,4.6,90,0.00,CLR,,0.00,WeatherDisplay:10.37,2013-05-12 05:26:00,
2013-05-12 01:31:00,51.8,49.3,29.91,ENE,65,3.5,3.5,91,0.00,CLR,,0.00,WeatherDisplay:10.37,2013-05-12 05:31:00,
2013-05-12 01:36:00,51.7,49.2,29.91,NNW,341,0.0,0.0,91,0.00,CLR,,0.00,WeatherDisplay:10.37,2013-05-12 05:36:00,
2013-05-12 01:41:00,51.5,48.7,29.91,NNW,341,5.8,5.8,90,0.00,CLR,,0.00,WeatherDisplay:10.37,2013-05-12 05:41:00,
2013-05-12 01:46:00,51.3,48.8,29.91,SE,136,8.1,8.1,91,0.00,CLR,,0.00,WeatherDisplay:10.37,2013-05-12 05:46:00,
2013-05-12 01:51:00,51.2,48.4,29.91,North,356,6.5,6.5,90,0.00,CLR,,0.00,WeatherDisplay:10.37,2013-05-12 05:51:00,
2013-05-12 01:56:00,51.1,48.0,29.92,NNE,15,5.8,5.8,89,0.00,CLR,,0.00,WeatherDisplay:10.37,2013-05-12 05:56:00,
2013-05-12 02:01:00,51.1,48.6,29.91,WSW,254,3.5,0.0,91,0.00,CLR,,0.00,WeatherDisplay:10.37,2013-05-12 06:01:00,
2013-05-12 02:06:00,51.0,48.5,29.91,NE,45,3.5,3.5,91,0.00,CLR,,0.00,WeatherDisplay:10.37,2013-05-12 06:06:00,
2013-05-12 02:11:00,50.9,48.1,29.91,NE,54,4.6,4.6,90,0.00,CLR,,0.00,WeatherDisplay:10.37,2013-05-12 06:11:00,
2013-05-12 02:16:00,50.8,48.0,29.91,NE,55,1.2,0.0,90,0.00,CLR,,0.00,WeatherDisplay:10.37,2013-05-12 06:16:00,
2013-05-12 02:21:00,50.7,47.9,29.91,NE,45,0.0,0.0,90,0.00,CLR,,0.00,WeatherDisplay:10.37,2013-05-12 06:21:00,
2013-05-12 02:26:00,50.6,48.1,29.91,NE,45,1.2,1.2,91,0.00,CLR,,0.00,WeatherDisplay:10.37,2013-05-12 06:26:00,
2013-05-12 02:31:00,50.5,48.0,29.91,NE,45,1.2,0.0,91,0.00,CLR,,0.00,WeatherDisplay:10.37,2013-05-12 06:31:00,
2013-05-12 02:36:00,50.4,48.2,29.91,NW,321,1.2,1.2,92,0.00,CLR,,0.00,WeatherDisplay:10.37,2013-05-12 06:36:00,
2013-05-12 02:41:00,50.3,47.8,29.91,NW,321,0.0,0.1,91,0.00,CLR,,0.00,WeatherDisplay:10.37,2013-05-12 06:41:00,
2013-05-12 02:46:00,50.0,47.5,29.90,NW,321,0.0,0.0,91,0.00,CLR,,0.00,WeatherDisplay:10.37,2013-05-12 06:46:00,
2013-05-12 02:51:00,49.8,47.6,29.90,West,275,2.3,0.0,92,0.00,CLR,,0.00,WeatherDisplay:10.37,2013-05-12 06:51:00,
2013-05-12 02:56:00,49.7,47.8,29.90,WNW,292,0.0,0.0,93,0.00,CLR,,0.00,WeatherDisplay:10.37,2013-05-12 06:56:00,
2013-05-12 03:01:00,49.6,47.7,29.90,WNW,285,1.1,1.1,93,0.00,CLR,,0.00,WeatherDisplay:10.37,2013-05-12 07:01:00,
2013-05-12 03:06:00,49.5,47.8,29.90,West,279,0.0,0.0,94,0.00,CLR,,0.00,WeatherDisplay:10.37,2013-05-12 07:06:00,
2013-05-12 03:11:00,49.4,47.7,29.90,West,279,0.0,0.0,94,0.00,CLR,,0.00,WeatherDisplay:10.37,2013-05-12 07:11:00,
2013-05-12 03:16:00,49.4,47.7,29.90,West,279,1.2,0.0,94,0.00,CLR,,0.00,WeatherDisplay:10.37,2013-05-12 07:16:00,
2013-05-12 03:21:00,49.3,47.6,29.90,West,281,2.3,0.0,94,0.00,CLR,,0.00,WeatherDisplay:10.37,2013-05-12 07:21:00,
2013-05-12 03:26:00,49.2,47.5,29.90,WSW,248,2.3,2.3,94,0.00,CLR,,0.00,WeatherDisplay:10.37,2013-05-12 07:26:00,
2013-05-12 03:31:00,49.1,47.4,29.90,WSW,252,0.0,0.0,94,0.00,CLR,,0.00,WeatherDisplay:10.37,2013-05-12 07:31:00,
2013-05-12 03:36:00,49.1,47.4,29.89,NW,313,1.2,0.0,94,0.00,CLR,,0.00,WeatherDisplay:10.37,2013-05-12 07:36:00,
2013-05-12 03:41:00,49.0,47.3,29.89,NW,313,1.2,0.0,94,0.00,CLR,,0.00,WeatherDisplay:10.37,2013-05-12 07:41:00,
2013-05-12 03:46:00,49.0,47.6,29.90,WNW,295,1.2,1.2,95,0.00,CLR,,0.00,WeatherDisplay:10.37,2013-05-12 07:46:00,
2013-05-12 03:51:00,48.9,47.5,29.90,West,281,0.0,0.0,95,0.00,CLR,,0.00,WeatherDisplay:10.37,2013-05-12 07:51:00,
2013-05-12 03:56:00,48.9,47.5,29.89,WNW,300,0.0,0.0,95,0.00,CLR,,0.00,WeatherDisplay:10.37,2013-05-12 07:56:00,
2013-05-12 04:01:00,49.0,47.6,29.89,WNW,297,0.0,0.1,95,0.00,CLR,,0.00,WeatherDisplay:10.37,2013-05-12 08:01:00,
2013-05-12 04:06:00,49.0,47.6,29.90,WNW,283,4.6,4.6,95,0.00,CLR,,0.00,WeatherDisplay:10.37,2013-05-12 08:06:00,
2013-05-12 04:11:00,49.0,47.6,29.90,NW,318,4.4,4.4,95,0.00,CLR,,0.00,WeatherDisplay:10.37,2013-05-12 08:11:00,
2013-05-12 04:16:00,49.0,47.6,29.91,WNW,300,3.5,3.5,95,0.00,CLR,,0.00,WeatherDisplay:10.37,2013-05-12 08:16:00,
2013-05-12 04:21:00,48.9,47.5,29.91,NW,315,5.4,5.4,95,0.00,CLR,,0.00,WeatherDisplay:10.37,2013-05-12 08:21:00,
2013-05-12 04:26:00,49.0,47.6,29.91,NW,316,6.9,6.9,95,0.00,CLR,,0.00,WeatherDisplay:10.37,2013-05-12 08:26:00,
2013-05-12 04:31:00,49.0,47.3,29.91,WNW,303,5.8,5.8,94,0.00,CLR,,0.00,WeatherDisplay:10.37,2013-05-12 08:31:00,
2013-05-12 04:36:00,49.0,47.3,29.91,NW,310,3.5,3.5,94,0.00,CLR,,0.00,WeatherDisplay:10.37,2013-05-12 08:36:00,
2013-05-12 04:41:00,49.1,47.4,29.91,NW,316,0.0,0.0,94,0.00,CLR,,0.00,WeatherDisplay:10.37,2013-05-12 08:41:00,
2013-05-12 04:46:00,49.1,47.4,29.91,West,270,6.9,6.9,94,0.00,CLR,,0.00,WeatherDisplay:10.37,2013-05-12 08:46:00,
2013-05-12 04:51:00,49.2,47.5,29.90,South,172,4.6,4.6,94,0.00,CLR,,0.00,WeatherDisplay:10.37,2013-05-12 08:51:00,
2013-05-12 04:56:00,49.3,47.9,29.90,NW,319,3.3,3.3,95,0.00,CLR,,0.00,WeatherDisplay:10.37,2013-05-12 08:56:00,
2013-05-12 05:01:00,49.3,47.6,29.90,NW,311,3.3,3.3,94,0.00,CLR,,0.00,WeatherDisplay:10.37,2013-05-12 09:01:00,
2013-05-12 05:06:00,49.3,47.6,29.90,West,280,0.0,0.0,94,0.00,CLR,,0.00,WeatherDisplay:10.37,2013-05-12 09:06:00,
2013-05-12 05:11:00,49.3,47.6,29.90,WNW,296,0.0,0.4,94,0.00,CLR,,0.00,WeatherDisplay:10.37,2013-05-12 09:11:00,
2013-05-12 05:16:00,49.3,47.4,29.90,NW,304,2.3,2.3,93,0.00,CLR,,0.00,WeatherDisplay:10.37,2013-05-12 09:16:00,
2013-05-12 05:21:00,49.3,47.4,29.90,NW,304,3.5,3.5,93,0.00,CLR,,0.00,WeatherDisplay:10.37,2013-05-12 09:21:00,
2013-05-12 05:27:00,49.3,47.4,29.90,NW,306,3.5,0.0,93,0.00,CLR,,0.00,WeatherDisplay:10.37,2013-05-12 09:27:00,
2013-05-12 05:32:00,49.3,47.1,29.90,NW,311,0.0,0.0,92,0.00,CLR,,0.00,WeatherDisplay:10.37,2013-05-12 09:32:00,
2013-05-12 05:37:00,49.3,47.4,29.90,North,8,1.2,0.0,93,0.00,CLR,,0.00,WeatherDisplay:10.37,2013-05-12 09:37:00,
2013-05-12 05:42:00,49.3,47.1,29.90,North,2,0.0,1.1,92,0.00,CLR,,0.00,WeatherDisplay:10.37,2013-05-12 09:42:00,
2013-05-12 05:47:00,49.3,47.1,29.90,North,2,0.0,0.0,92,0.00,CLR,,0.00,WeatherDisplay:10.37,2013-05-12 09:47:00,
2013-05-12 05:52:00,49.3,47.1,29.90,NNE,25,0.0,0.0,92,0.00,CLR,,0.00,WeatherDisplay:10.37,2013-05-12 09:52:00,
2013-05-12 05:57:00,49.3,46.8,29.90,NNE,25,0.0,0.0,91,0.00,CLR,,0.00,WeatherDisplay:10.37,2013-05-12 09:57:00,
2013-05-12 06:02:00,49.3,47.1,29.91,NNE,25,0.0,0.0,92,0.00,CLR,,0.00,WeatherDisplay:10.37,2013-05-12 10:02:00,
2013-05-12 06:07:00,49.3,47.1,29.91,WNW,291,0.0,0.0,92,0.00,CLR,,0.00,WeatherDisplay:10.37,2013-05-12 10:07:00,
2013-05-12 06:12:00,49.4,47.2,29.91,WNW,291,2.2,2.2,92,0.00,CLR,,0.00,WeatherDisplay:10.37,2013-05-12 10:12:00,
2013-05-12 06:17:00,49.4,47.5,29.91,NW,323,4.6,4.6,93,0.00,CLR,,0.00,WeatherDisplay:10.37,2013-05-12 10:17:00,
2013-05-12 06:22:00,49.5,47.6,29.91,ESE,102,4.6,0.0,93,0.00,CLR,,0.00,WeatherDisplay:10.37,2013-05-12 10:22:00,
2013-05-12 06:27:00,49.5,47.3,29.92,NNW,329,5.8,5.8,92,0.00,CLR,,0.00,WeatherDisplay:10.37,2013-05-12 10:27:00,
2013-05-12 06:32:00,49.6,47.7,29.92,WNW,301,0.0,0.0,93,0.00,CLR,,0.00,WeatherDisplay:10.37,2013-05-12 10:32:00,
2013-05-12 06:37:00,49.6,47.7,29.92,East,90,6.9,6.9,93,0.00,CLR,,0.00,WeatherDisplay:10.37,2013-05-12 10:37:00,
2013-05-12 06:42:00,49.6,47.4,29.92,SSW,199,8.1,8.1,92,0.00,CLR,,0.00,WeatherDisplay:10.37,2013-05-12 10:42:00,
2013-05-12 06:47:00,49.7,48.0,29.92,South,185,2.3,2.3,94,0.00,CLR,,0.00,WeatherDisplay:10.37,2013-05-12 10:47:00,
2013-05-12 06:52:00,49.7,48.0,29.92,South,169,8.1,8.1,94,0.00,CLR,,0.00,WeatherDisplay:10.37,2013-05-12 10:52:00,
2013-05-12 06:57:00,49.7,48.0,29.92,West,266,6.9,6.9,94,0.00,CLR,,0.00,WeatherDisplay:10.37,2013-05-12 10:57:00,
2013-05-12 07:02:00,49.7,47.8,29.93,NW,318,3.5,3.5,93,0.00,CLR,,0.00,WeatherDisplay:10.37,2013-05-12 11:02:00,
2013-05-12 07:07:00,49.7,48.0,29.93,ESE,106,5.8,5.8,94,0.00,CLR,,0.00,WeatherDisplay:10.37,2013-05-12 11:07:00,
2013-05-12 07:12:00,49.7,47.8,29.93,SSE,160,2.3,2.3,93,0.00,CLR,,0.00,WeatherDisplay:10.37,2013-05-12 11:12:00,
2013-05-12 07:17:00,49.8,47.9,29.93,East,92,6.9,6.9,93,0.00,CLR,,0.00,WeatherDisplay:10.37,2013-05-12 11:17:00,
2013-05-12 07:22:00,49.9,48.0,29.93,NNE,13,11.5,11.5,93,0.00,CLR,,0.00,WeatherDisplay:10.37,2013-05-12 11:22:00,
2013-05-12 07:27:00,49.9,48.0,29.93,NE,35,9.2,9.2,93,0.00,CLR,,0.00,WeatherDisplay:10.37,2013-05-12 11:27:00,
2013-05-12 07:32:00,50.0,48.1,29.93,NNE,17,5.8,5.8,93,0.00,CLR,,0.00,WeatherDisplay:10.37,2013-05-12 11:32:00,
2013-05-12 07:37:00,50.0,48.1,29.93,East,89,5.8,5.8,93,0.00,CLR,,0.00,WeatherDisplay:10.37,2013-05-12 11:37:00,
2013-05-12 07:42:00,50.0,48.3,29.93,ESE,110,4.6,4.6,94,0.00,CLR,,0.00,WeatherDisplay:10.37,2013-05-12 11:42:00,
2013-05-12 07:47:00,50.0,48.1,29.94,ENE,71,2.3,2.3,93,0.00,CLR,,0.00,WeatherDisplay:10.37,2013-05-12 11:47:00,
2013-05-12 07:52:00,50.0,48.3,29.94,ESE,121,0.0,0.0,94,0.00,CLR,,0.00,WeatherDisplay:10.37,2013-05-12 11:52:00,
2013-05-12 07:57:00,50.0,48.3,29.94,South,176,3.5,3.5,94,0.00,CLR,,0.00,WeatherDisplay:10.37,2013-05-12 11:57:00,
2013-05-12 08:02:00,50.1,48.4,29.95,WSW,251,6.9,6.9,94,0.00,CLR,,0.00,WeatherDisplay:10.37,2013-05-12 12:02:00,
2013-05-12 08:07:00,50.1,48.4,29.94,NNW,341,6.9,6.9,94,0.00,CLR,,0.00,WeatherDisplay:10.37,2013-05-12 12:07:00,
2013-05-12 08:12:00,50.0,48.1,29.95,West,272,0.0,0.0,93,0.00,CLR,,0.00,WeatherDisplay:10.37,2013-05-12 12:12:00,
2013-05-12 08:17:00,49.9,48.0,29.95,West,265,10.4,10.4,93,0.00,CLR,,0.00,WeatherDisplay:10.37,2013-05-12 12:17:00,
2013-05-12 08:22:00,49.8,47.9,29.95,WNW,298,9.2,9.2,93,0.00,CLR,,0.00,WeatherDisplay:10.37,2013-05-12 12:22:00,
2013-05-12 08:27:00,49.8,47.9,29.95,South,180,0.0,0.0,93,0.00,CLR,,0.00,WeatherDisplay:10.37,2013-05-12 12:27:00,
2013-05-12 08:32:00,49.7,47.5,29.95,ENE,62,4.6,4.6,92,0.00,CLR,,0.00,WeatherDisplay:10.37,2013-05-12 12:32:00,
2013-05-12 08:37:00,49.6,47.7,29.95,East,100,0.0,0.0,93,0.00,CLR,,0.00,WeatherDisplay:10.37,2013-05-12 12:37:00,
2013-05-12 08:42:00,49.6,47.9,29.95,ESE,109,5.8,5.8,94,0.00,CLR,,0.00,WeatherDisplay:10.37,2013-05-12 12:42:00,
2013-05-12 08:47:00,49.7,47.8,29.96,SE,146,4.4,4.4,93,0.00,CLR,,0.00,WeatherDisplay:10.37,2013-05-12 12:47:00,
2013-05-12 08:52:00,49.8,47.9,29.96,SW,221,6.6,6.6,93,0.00,CLR,,0.00,WeatherDisplay:10.37,2013-05-12 12:52:00,
2013-05-12 08:57:00,49.9,47.7,29.96,ESE,122,5.8,5.8,92,0.00,CLR,,0.00,WeatherDisplay:10.37,2013-05-12 12:57:00,
2013-05-12 09:02:00,50.0,48.1,29.96,West,266,6.9,6.9,93,0.00,CLR,,0.00,WeatherDisplay:10.37,2013-05-12 13:02:00,
2013-05-12 09:07:00,49.9,47.4,29.96,SE,127,8.1,8.1,91,0.00,CLR,,0.00,WeatherDisplay:10.37,2013-05-12 13:07:00,
2013-05-12 09:12:00,49.8,46.7,29.97,South,177,6.9,6.9,89,0.00,CLR,,0.00,WeatherDisplay:10.37,2013-05-12 13:12:00,
2013-05-12 09:17:00,49.8,46.7,29.97,WNW,301,4.6,4.6,89,0.00,CLR,,0.00,WeatherDisplay:10.37,2013-05-12 13:17:00,
2013-05-12 09:22:00,49.9,46.8,29.96,NW,323,0.0,0.0,89,0.00,CLR,,0.00,WeatherDisplay:10.37,2013-05-12 13:22:00,
2013-05-12 09:27:00,50.0,47.2,29.97,NNW,339,5.8,5.8,90,0.00,CLR,,0.00,WeatherDisplay:10.37,2013-05-12 13:27:00,
2013-05-12 09:32:00,50.1,47.9,29.97,SW,219,8.1,8.1,92,0.00,CLR,,0.00,WeatherDisplay:10.37,2013-05-12 13:32:00,
2013-05-12 09:37:00,50.0,46.3,29.97,North,356,5.8,5.8,87,0.00,CLR,,0.00,WeatherDisplay:10.37,2013-05-12 13:37:00,
2013-05-12 09:42:00,49.8,45.8,29.97,West,279,5.8,5.8,86,0.00,CLR,,0.00,WeatherDisplay:10.37,2013-05-12 13:42:00,
2013-05-12 09:47:00,49.8,45.8,29.97,West,279,5.8,5.8,86,0.00,CLR,,0.00,WeatherDisplay:10.37,2013-05-12 13:47:00,
2013-05-12 09:52:00,49.8,45.8,29.98,SSW,207,3.5,0.0,86,0.00,CLR,,0.00,WeatherDisplay:10.37,2013-05-12 13:52:00,
2013-05-12 09:57:00,50.0,45.4,29.98,WNW,291,6.9,6.9,84,0.00,CLR,,0.00,WeatherDisplay:10.37,2013-05-12 13:57:00,
2013-05-12 10:02:00,49.9,44.6,29.97,NW,314,6.5,6.5,82,0.00,CLR,,0.00,WeatherDisplay:10.37,2013-05-12 14:02:00,
2013-05-12 10:07:00,49.7,43.8,29.97,NNW,339,2.3,2.3,80,0.00,CLR,,0.00,WeatherDisplay:10.37,2013-05-12 14:07:00,
2013-05-12 10:12:00,49.7,44.1,29.98,SW,230,5.8,5.8,81,0.00,CLR,,0.00,WeatherDisplay:10.37,2013-05-12 14:12:00,
2013-05-12 10:17:00,49.8,43.9,29.97,WSW,250,5.8,5.8,80,0.00,CLR,,0.00,WeatherDisplay:10.37,2013-05-12 14:17:00,
2013-05-12 10:22:00,49.9,43.6,29.98,WSW,242,8.1,8.1,79,0.00,CLR,,0.00,WeatherDisplay:10.37,2013-05-12 14:22:00,
2013-05-12 10:27:00,50.0,43.1,29.98,WSW,258,8.1,8.1,77,0.00,CLR,,0.00,WeatherDisplay:10.37,2013-05-12 14:27:00,
2013-05-12 10:32:00,50.1,43.8,29.98,WSW,238,6.9,6.9,79,0.00,CLR,,0.00,WeatherDisplay:10.37,2013-05-12 14:32:00,
2013-05-12 10:37:00,50.3,43.4,29.99,WSW,240,10.4,10.4,77,0.00,CLR,,0.00,WeatherDisplay:10.37,2013-05-12 14:37:00,
2013-05-12 10:42:00,50.5,43.6,29.99,WSW,246,3.5,3.5,77,0.00,CLR,,0.00,WeatherDisplay:10.37,2013-05-12 14:42:00,
2013-05-12 10:47:00,50.7,44.1,29.99,WSW,239,6.9,6.9,78,0.00,CLR,,0.00,WeatherDisplay:10.37,2013-05-12 14:47:00,
2013-05-12 10:52:00,51.1,43.1,29.99,WSW,245,5.8,5.8,74,0.00,CLR,,0.00,WeatherDisplay:10.37,2013-05-12 14:52:00,
2013-05-12 10:57:00,51.3,42.6,29.99,SSE,168,8.1,8.1,72,0.00,CLR,,0.00,WeatherDisplay:10.37,2013-05-12 14:57:00,
2013-05-12 11:02:00,51.5,42.4,29.99,South,181,4.6,4.6,71,0.00,CLR,,0.00,WeatherDisplay:10.37,2013-05-12 15:02:00,
2013-05-12 11:07:00,51.8,44.5,29.99,SW,224,9.2,11.0,76,0.00,CLR,,0.00,WeatherDisplay:10.37,2013-05-12 15:07:00,
2013-05-12 11:12:00,52.1,45.4,29.99,WSW,255,4.6,4.6,78,0.00,CLR,,0.00,WeatherDisplay:10.37,2013-05-12 15:12:00,
2013-05-12 11:17:00,52.4,40.6,29.99,SW,233,9.2,9.2,64,0.00,CLR,,0.00,WeatherDisplay:10.37,2013-05-12 15:17:00,
2013-05-12 11:22:00,52.7,43.9,29.99,SW,228,5.8,5.8,72,0.00,CLR,,0.00,WeatherDisplay:10.37,2013-05-12 15:22:00,
2013-05-12 11:27:00,52.9,39.4,29.99,SW,229,13.8,13.8,60,0.00,CLR,,0.00,WeatherDisplay:10.37,2013-05-12 15:27:00,
2013-05-12 11:32:00,53.1,38.3,30.00,WNW,297,8.1,8.1,57,0.00,CLR,,0.00,WeatherDisplay:10.37,2013-05-12 15:32:00,
2013-05-12 11:37:00,53.3,38.9,30.00,West,275,4.6,4.6,58,0.00,CLR,,0.00,WeatherDisplay:10.37,2013-05-12 15:37:00,
2013-05-12 11:42:00,53.5,37.7,30.01,WSW,253,5.4,5.4,55,0.00,CLR,,0.00,WeatherDisplay:10.37,2013-05-12 15:42:00,
2013-05-12 11:47:00,53.6,35.4,30.01,SSW,212,10.4,10.4,50,0.00,CLR,,0.00,WeatherDisplay:10.37,2013-05-12 15:47:00,
2013-05-12 11:52:00,53.7,35.0,30.00,NNW,332,8.1,8.1,49,0.00,CLR,,0.00,WeatherDisplay:10.37,2013-05-12 15:52:00,
2013-05-12 11:57:00,53.8,36.1,30.01,WSW,245,5.8,5.8,51,0.00,CLR,,0.00,WeatherDisplay:10.37,2013-05-12 15:57:00,
2013-05-12 12:02:00,54.1,36.4,30.01,WSW,241,5.8,5.8,51,0.00,CLR,,0.00,WeatherDisplay:10.37,2013-05-12 16:02:00,
2013-05-12 12:08:00,54.4,35.6,30.01,West,264,9.2,9.2,49,0.00,CLR,,0.00,WeatherDisplay:10.37,2013-05-12 16:08:00,
2013-05-12 12:13:00,54.7,38.8,30.01,WNW,287,7.6,7.6,55,0.00,CLR,,0.00,WeatherDisplay:10.37,2013-05-12 16:13:00,
2013-05-12 12:18:00,55.0,37.7,30.01,SW,222,10.4,10.4,52,0.00,CLR,,0.00,WeatherDisplay:10.37,2013-05-12 16:18:00,
2013-05-12 12:23:00,55.4,38.1,30.00,SW,235,16.0,16.0,52,0.00,CLR,,0.00,WeatherDisplay:10.37,2013-05-12 16:23:00,
2013-05-12 12:28:00,55.8,38.9,30.01,SW,229,8.1,8.1,53,0.00,CLR,,0.00,WeatherDisplay:10.37,2013-05-12 16:28:00,
2013-05-12 12:33:00,56.2,39.8,30.01,SSW,206,7.6,7.6,54,0.00,CLR,,0.00,WeatherDisplay:10.37,2013-05-12 16:33:00,
2013-05-12 12:38:00,56.5,39.1,30.01,West,262,4.6,4.6,52,0.00,CLR,,0.00,WeatherDisplay:10.37,2013-05-12 16:38:00,
2013-05-12 12:43:00,56.8,39.8,30.01,WNW,295,5.8,5.8,53,0.00,CLR,,0.00,WeatherDisplay:10.37,2013-05-12 16:43:00,
2013-05-12 12:48:00,57.3,39.8,30.01,SW,233,3.5,3.5,52,0.00,CLR,,0.00,WeatherDisplay:10.37,2013-05-12 16:48:00,
2013-05-12 12:53:00,57.7,42.1,30.01,SW,235,5.3,5.3,56,0.00,CLR,,0.00,WeatherDisplay:10.37,2013-05-12 16:53:00,
2013-05-12 12:58:00,58.3,39.7,30.01,WNW,292,4.6,4.6,50,0.00,CLR,,0.00,WeatherDisplay:10.37,2013-05-12 16:58:00,
2013-05-12 13:03:00,58.8,40.2,30.01,East,85,8.1,8.1,50,0.00,CLR,,0.00,WeatherDisplay:10.37,2013-05-12 17:03:00,
2013-05-12 13:08:00,58.9,43.2,30.01,SSW,202,6.9,6.9,56,0.00,CLR,,0.00,WeatherDisplay:10.37,2013-05-12 17:08:00,
2013-05-12 13:13:00,59.2,42.1,30.01,WSW,256,8.1,8.1,53,0.00,CLR,,0.00,WeatherDisplay:10.37,2013-05-12 17:13:00,
2013-05-12 13:18:00,59.4,41.3,30.01,ESE,106,6.9,6.9,51,0.00,CLR,,0.00,WeatherDisplay:10.37,2013-05-12 17:18:00,
2013-05-12 13:23:00,59.0,39.9,30.01,ENE,60,3.5,0.0,49,0.00,CLR,,0.00,WeatherDisplay:10.37,2013-05-12 17:23:00,
2013-05-12 13:28:00,59.1,39.9,30.01,WNW,300,8.1,8.1,49,0.00,CLR,,0.00,WeatherDisplay:10.37,2013-05-12 17:28:00,
2013-05-12 13:33:00,59.3,42.6,30.01,SW,227,1.2,1.2,54,0.00,CLR,,0.00,WeatherDisplay:10.37,2013-05-12 17:33:00,
2013-05-12 13:38:00,59.5,44.2,30.01,WSW,243,5.8,5.8,57,0.00,CLR,,0.00,WeatherDisplay:10.37,2013-05-12 17:38:00,
2013-05-12 13:43:00,59.9,42.2,30.01,WNW,288,1.2,1.2,52,0.00,CLR,,0.00,WeatherDisplay:10.37,2013-05-12 17:43:00,
2013-05-12 13:48:00,60.1,42.9,30.01,SW,235,5.8,5.8,53,0.00,CLR,,0.00,WeatherDisplay:10.37,2013-05-12 17:48:00,
2013-05-12 13:53:00,60.3,35.9,30.01,WNW,298,9.2,9.2,40,0.00,CLR,,0.00,WeatherDisplay:10.37,2013-05-12 17:53:00,
2013-05-12 13:58:00,60.1,37.5,30.00,NNE,29,3.5,3.5,43,0.00,CLR,,0.00,WeatherDisplay:10.37,2013-05-12 17:58:00,
2013-05-12 14:03:00,59.3,41.2,30.01,WSW,237,2.3,2.3,51,0.00,CLR,,0.00,WeatherDisplay:10.37,2013-05-12 18:03:00,
2013-05-12 14:08:00,59.0,39.3,30.00,WSW,258,9.2,9.2,48,0.00,CLR,,0.00,WeatherDisplay:10.37,2013-05-12 18:08:00,
2013-05-12 14:13:00,59.0,41.4,30.01,WNW,295,6.9,6.9,52,0.00,CLR,,0.00,WeatherDisplay:10.37,2013-05-12 18:13:00,
2013-05-12 14:18:00,59.0,41.4,30.01,ENE,57,1.2,1.2,52,0.00,CLR,,0.00,WeatherDisplay:10.37,2013-05-12 18:18:00,
2013-05-12 14:23:00,58.7,35.7,30.01,NW,325,9.2,9.2,42,0.00,CLR,,0.00,WeatherDisplay:10.37,2013-05-12 18:23:00,
2013-05-12 14:28:00,58.0,35.6,30.00,South,175,4.6,4.6,43,0.00,CLR,,0.00,WeatherDisplay:10.37,2013-05-12 18:28:00,
2013-05-12 14:33:00,58.2,39.6,30.00,SSW,200,10.4,10.4,50,0.00,CLR,,0.00,WeatherDisplay:10.37,2013-05-12 18:33:00,
2013-05-12 14:38:00,58.8,39.7,30.01,East,92,5.8,5.8,49,0.00,CLR,,0.00,WeatherDisplay:10.37,2013-05-12 18:38:00,
2013-05-12 14:43:00,59.0,39.9,30.01,South,184,5.8,5.8,49,0.00,CLR,,0.00,WeatherDisplay:10.37,2013-05-12 18:43:00,
2013-05-12 14:48:00,59.1,35.4,30.00,WSW,250,10.4,10.4,41,0.00,CLR,,0.00,WeatherDisplay:10.37,2013-05-12 18:48:00,
2013-05-12 14:53:00,59.0,36.5,30.00,SW,235,12.0,12.0,43,0.00,CLR,,0.00,WeatherDisplay:10.37,2013-05-12 18:53:00,
2013-05-12 14:58:00,59.0,35.3,30.00,WNW,296,6.5,6.5,41,0.00,CLR,,0.00,WeatherDisplay:10.37,2013-05-12 18:58:00,
2013-05-12 15:03:00,59.0,37.7,30.01,WSW,241,8.1,8.1,45,0.00,CLR,,0.00,WeatherDisplay:10.37,2013-05-12 19:03:00,
2013-05-12 15:08:00,58.7,39.0,30.00,NE,51,1.2,1.2,48,0.00,CLR,,0.00,WeatherDisplay:10.37,2013-05-12 19:08:00,
2013-05-12 15:13:00,58.9,38.7,30.00,WNW,285,1.2,1.2,47,0.00,CLR,,0.00,WeatherDisplay:10.37,2013-05-12 19:13:00,
2013-05-12 15:18:00,59.0,37.1,30.00,WSW,248,9.2,9.2,44,0.00,CLR,,0.00,WeatherDisplay:10.37,2013-05-12 19:18:00,
2013-05-12 15:23:00,59.0,37.7,30.00,SW,235,13.3,13.3,45,0.00,CLR,,0.00,WeatherDisplay:10.37,2013-05-12 19:23:00,
2013-05-12 15:28:00,59.1,35.4,30.00,SW,233,10.4,10.4,41,0.00,CLR,,0.00,WeatherDisplay:10.37,2013-05-12 19:28:00,
2013-05-12 15:33:00,59.4,43.2,30.00,ESE,104,2.2,2.2,55,0.00,CLR,,0.00,WeatherDisplay:10.37,2013-05-12 19:33:00,
2013-05-12 15:38:00,59.7,41.5,29.99,SSW,195,6.9,6.9,51,0.00,CLR,,0.00,WeatherDisplay:10.37,2013-05-12 19:38:00,
2013-05-12 15:43:00,59.8,42.1,29.99,NW,320,2.2,2.2,52,0.00,CLR,,0.00,WeatherDisplay:10.37,2013-05-12 19:43:00,
2013-05-12 15:48:00,60.0,42.3,29.99,SSE,159,5.8,5.8,52,0.00,CLR,,0.00,WeatherDisplay:10.37,2013-05-12 19:48:00,
2013-05-12 15:53:00,60.0,40.2,29.98,SW,228,11.5,11.5,48,0.00,CLR,,0.00,WeatherDisplay:10.37,2013-05-12 19:53:00,
2013-05-12 15:58:00,60.0,37.4,29.98,WSW,237,8.1,8.1,43,0.00,CLR,,0.00,WeatherDisplay:10.37,2013-05-12 19:58:00,
2013-05-12 16:03:00,59.7,43.0,29.98,NE,54,5.8,0.0,54,0.00,CLR,,0.00,WeatherDisplay:10.37,2013-05-12 20:03:00,
2013-05-12 16:08:00,59.4,40.2,29.98,SW,227,15.0,15.0,49,0.00,CLR,,0.00,WeatherDisplay:10.37,2013-05-12 20:08:00,
2013-05-12 16:13:00,59.3,40.7,29.98,SSW,202,1.2,1.2,50,0.00,CLR,,0.00,WeatherDisplay:10.37,2013-05-12 20:13:00,
2013-05-12 16:18:00,59.3,39.6,29.99,WNW,302,8.1,8.1,48,0.00,CLR,,0.00,WeatherDisplay:10.37,2013-05-12 20:18:00,
2013-05-12 16:23:00,59.4,39.1,29.98,SW,221,11.5,11.5,47,0.00,CLR,,0.00,WeatherDisplay:10.37,2013-05-12 20:23:00,
2013-05-12 16:28:00,59.4,38.0,29.98,SW,220,9.3,9.3,45,0.00,CLR,,0.00,WeatherDisplay:10.37,2013-05-12 20:28:00,
2013-05-12 16:33:00,59.3,39.1,29.99,SSW,210,8.0,8.0,47,0.00,CLR,,0.00,WeatherDisplay:10.37,2013-05-12 20:33:00,
2013-05-12 16:38:00,59.1,37.2,29.99,West,268,6.9,6.9,44,0.00,CLR,,0.00,WeatherDisplay:10.37,2013-05-12 20:38:00,
2013-05-12 16:43:00,58.8,37.5,29.99,NNW,346,11.5,11.5,45,0.00,CLR,,0.00,WeatherDisplay:10.37,2013-05-12 20:43:00,
2013-05-12 16:48:00,58.6,37.3,29.99,WSW,255,6.9,6.9,45,0.00,CLR,,0.00,WeatherDisplay:10.37,2013-05-12 20:48:00,
2013-05-12 16:53:00,58.5,39.9,29.99,SW,234,3.5,3.5,50,0.00,CLR,,0.00,WeatherDisplay:10.37,2013-05-12 20:53:00,
2013-05-12 16:58:00,58.4,38.8,29.99,WNW,289,6.9,6.9,48,0.00,CLR,,0.00,WeatherDisplay:10.37,2013-05-12 20:58:00,
2013-05-12 17:03:00,58.3,37.0,30.00,SW,226,8.1,8.1,45,0.00,CLR,,0.00,WeatherDisplay:10.37,2013-05-12 21:03:00,
2013-05-12 17:08:00,58.1,38.0,30.00,WSW,250,16.1,16.1,47,0.00,CLR,,0.00,WeatherDisplay:10.37,2013-05-12 21:08:00,
2013-05-12 17:13:00,58.0,38.4,30.00,SW,216,5.8,5.8,48,0.00,CLR,,0.00,WeatherDisplay:10.37,2013-05-12 21:13:00,
2013-05-12 17:18:00,57.9,36.7,30.01,SW,224,8.1,8.3,45,0.00,CLR,,0.00,WeatherDisplay:10.37,2013-05-12 21:18:00,
2013-05-12 17:23:00,57.8,37.7,30.01,SSW,213,4.6,4.6,47,0.00,CLR,,0.00,WeatherDisplay:10.37,2013-05-12 21:23:00,
2013-05-12 17:28:00,57.7,35.9,30.01,SSW,204,11.5,11.5,44,0.00,CLR,,0.00,WeatherDisplay:10.37,2013-05-12 21:28:00,
2013-05-12 17:33:00,57.7,35.3,30.01,WSW,255,9.2,9.2,43,0.00,CLR,,0.00,WeatherDisplay:10.37,2013-05-12 21:33:00,
2013-05-12 17:38:00,57.5,36.3,30.01,WNW,300,11.5,11.5,45,0.00,CLR,,0.00,WeatherDisplay:10.37,2013-05-12 21:38:00,
2013-05-12 17:43:00,57.5,36.3,30.01,NE,47,3.5,3.5,45,0.00,CLR,,0.00,WeatherDisplay:10.37,2013-05-12 21:43:00,
2013-05-12 17:48:00,57.4,36.2,30.01,NW,310,10.4,10.4,45,0.00,CLR,,0.00,WeatherDisplay:10.37,2013-05-12 21:48:00,
2013-05-12 17:53:00,57.2,35.5,30.01,WSW,237,12.0,12.0,44,0.00,CLR,,0.00,WeatherDisplay:10.37,2013-05-12 21:53:00,
2013-05-12 17:58:00,57.0,34.7,30.01,NNW,346,3.5,3.5,43,0.00,CLR,,0.00,WeatherDisplay:10.37,2013-05-12 21:58:00,
2013-05-12 18:03:00,56.7,35.6,30.01,West,279,8.1,8.1,45,0.00,CLR,,0.00,WeatherDisplay:10.37,2013-05-12 22:03:00,
2013-05-12 18:08:00,56.5,38.1,30.01,WSW,243,7.6,7.6,50,0.00,CLR,,0.00,WeatherDisplay:10.37,2013-05-12 22:08:00,
2013-05-12 18:13:00,56.3,33.5,30.02,NW,321,10.4,10.4,42,0.00,CLR,,0.00,WeatherDisplay:10.37,2013-05-12 22:13:00,
2013-05-12 18:18:00,56.0,36.6,30.01,SE,125,5.8,5.8,48,0.00,CLR,,0.00,WeatherDisplay:10.37,2013-05-12 22:18:00,
2013-05-12 18:23:00,55.8,35.3,30.01,SW,233,5.8,5.8,46,0.00,CLR,,0.00,WeatherDisplay:10.37,2013-05-12 22:23:00,
2013-05-12 18:28:00,55.9,33.7,30.02,West,275,10.4,10.4,43,0.00,CLR,,0.00,WeatherDisplay:10.37,2013-05-12 22:28:00,
2013-05-12 18:33:00,55.8,35.3,30.01,ENE,65,3.5,0.0,46,0.00,CLR,,0.00,WeatherDisplay:10.37,2013-05-12 22:33:00,
2013-05-12 18:38:00,55.8,35.9,30.02,WSW,248,1.3,1.3,47,0.00,CLR,,0.00,WeatherDisplay:10.37,2013-05-12 22:38:00,
2013-05-12 18:43:00,55.7,34.7,30.02,NNW,334,1.2,1.2,45,0.00,CLR,,0.00,WeatherDisplay:10.37,2013-05-12 22:43:00,
2013-05-12 18:48:00,55.5,35.0,30.02,WSW,242,1.2,0.0,46,0.00,CLR,,0.00,WeatherDisplay:10.37,2013-05-12 22:48:00,
2013-05-12 18:53:00,55.2,34.8,30.02,SSW,196,3.3,3.3,46,0.00,CLR,,0.00,WeatherDisplay:10.37,2013-05-12 22:53:00,
2013-05-12 18:58:00,55.0,34.6,30.02,WSW,243,15.0,15.0,46,0.00,CLR,,0.00,WeatherDisplay:10.37,2013-05-12 22:58:00,
2013-05-12 19:03:00,55.0,36.2,30.02,South,187,0.0,0.1,49,0.00,CLR,,0.00,WeatherDisplay:10.37,2013-05-12 23:03:00,
2013-05-12 19:08:00,54.9,32.2,30.02,South,185,5.8,5.8,42,0.00,CLR,,0.00,WeatherDisplay:10.37,2013-05-12 23:08:00,
2013-05-12 19:13:00,54.9,33.4,30.02,WNW,286,4.6,0.0,44,0.00,CLR,,0.00,WeatherDisplay:10.37,2013-05-12 23:13:00,
2013-05-12 19:18:00,54.7,32.6,30.02,SW,220,6.9,6.9,43,0.00,CLR,,0.00,WeatherDisplay:10.37,2013-05-12 23:18:00,
2013-05-12 19:23:00,54.6,33.1,30.02,SW,226,9.2,9.2,44,0.00,CLR,,0.00,WeatherDisplay:10.37,2013-05-12 23:23:00,
2013-05-12 19:28:00,54.6,34.8,30.03,NNE,21,8.1,8.1,47,0.00,CLR,,0.00,WeatherDisplay:10.37,2013-05-12 23:28:00,
2013-05-12 19:34:00,54.6,32.5,30.02,SW,231,8.1,8.1,43,0.00,CLR,,0.00,WeatherDisplay:10.37,2013-05-12 23:34:00,
2013-05-12 19:39:00,54.6,31.9,30.03,SSE,149,4.6,4.6,42,0.00,CLR,,0.00,WeatherDisplay:10.37,2013-05-12 23:39:00,
2013-05-12 19:44:00,54.3,30.5,30.03,NE,50,6.9,6.9,40,0.00,CLR,,0.00,WeatherDisplay:10.37,2013-05-12 23:44:00,
2013-05-12 19:49:00,54.2,31.0,30.03,NW,323,12.7,12.7,41,0.00,CLR,,0.00,WeatherDisplay:10.37,2013-05-12 23:49:00,
2013-05-12 19:54:00,54.0,32.0,30.03,SSW,202,4.4,4.4,43,0.00,CLR,,0.00,WeatherDisplay:10.37,2013-05-12 23:54:00,
2013-05-12 19:59:00,53.7,31.1,30.03,NE,50,4.6,4.6,42,0.00,CLR,,0.00,WeatherDisplay:10.37,2013-05-12 23:59:00,
2013-05-12 20:04:00,53.4,30.3,30.03,NW,307,8.1,8.1,41,0.00,CLR,,0.00,WeatherDisplay:10.37,2013-05-13 00:04:00,
2013-05-12 20:09:00,53.1,31.2,30.03,North,356,6.5,6.5,43,0.00,CLR,,0.00,WeatherDisplay:10.37,2013-05-13 00:09:00,
2013-05-12 20:14:00,52.7,30.8,30.03,ENE,60,6.9,6.9,43,0.00,CLR,,0.00,WeatherDisplay:10.37,2013-05-13 00:14:00,
2013-05-12 20:19:00,52.4,31.1,30.04,North,356,2.3,2.3,44,0.00,CLR,,0.00,WeatherDisplay:10.37,2013-05-13 00:19:00,
2013-05-12 20:24:00,52.2,30.9,30.03,ENE,68,3.5,3.5,44,0.00,CLR,,0.00,WeatherDisplay:10.37,2013-05-13 00:24:00,
2013-05-12 20:29:00,52.1,30.8,30.03,North,8,5.8,5.8,44,0.00,CLR,,0.00,WeatherDisplay:10.37,2013-05-13 00:29:00,
2013-05-12 20:34:00,51.9,31.2,30.03,NE,47,0.0,0.0,45,0.00,CLR,,0.00,WeatherDisplay:10.37,2013-05-13 00:34:00,
2013-05-12 20:39:00,51.8,31.1,30.03,NE,47,1.2,1.2,45,0.00,CLR,,0.00,WeatherDisplay:10.37,2013-05-13 00:39:00,
2013-05-12 20:44:00,51.6,31.5,30.03,East,85,0.0,0.0,46,0.00,CLR,,0.00,WeatherDisplay:10.37,2013-05-13 00:44:00,
2013-05-12 20:49:00,51.6,32.0,30.03,NNW,329,1.2,1.2,47,0.00,CLR,,0.00,WeatherDisplay:10.37,2013-05-13 00:49:00,
2013-05-12 20:54:00,51.4,31.3,30.04,NNE,31,1.1,1.1,46,0.00,CLR,,0.00,WeatherDisplay:10.37,2013-05-13 00:54:00,
2013-05-12 20:59:00,51.3,31.7,30.04,ENE,69,0.0,0.0,47,0.00,CLR,,0.00,WeatherDisplay:10.37,2013-05-13 00:59:00,
2013-05-12 21:04:00,51.2,32.2,30.04,ENE,69,0.0,0.0,48,0.00,CLR,,0.00,WeatherDisplay:10.37,2013-05-13 01:04:00,
2013-05-12 21:09:00,51.1,33.1,30.04,ENE,71,0.0,0.0,50,0.00,CLR,,0.00,WeatherDisplay:10.37,2013-05-13 01:09:00,
2013-05-12 21:14:00,50.9,32.9,30.05,ENE,71,0.0,0.0,50,0.00,CLR,,0.00,WeatherDisplay:10.37,2013-05-13 01:14:00,
2013-05-12 21:19:00,50.7,32.2,30.05,ENE,71,0.0,0.0,49,0.00,CLR,,0.00,WeatherDisplay:10.37,2013-05-13 01:19:00,
2013-05-12 21:24:00,50.6,31.6,30.05,North,351,0.0,0.0,48,0.00,CLR,,0.00,WeatherDisplay:10.37,2013-05-13 01:24:00,
2013-05-12 21:29:00,50.6,32.1,30.05,NW,322,1.2,1.2,49,0.00,CLR,,0.00,WeatherDisplay:10.37,2013-05-13 01:29:00,
2013-05-12 21:34:00,50.5,33.0,30.05,NW,320,1.2,1.2,51,0.00,CLR,,0.00,WeatherDisplay:10.37,2013-05-13 01:34:00,
2013-05-12 21:39:00,50.5,31.5,30.05,SW,225,0.0,0.0,48,0.00,CLR,,0.00,WeatherDisplay:10.37,2013-05-13 01:39:00,
2013-05-12 21:44:00,50.5,32.0,30.05,NW,324,2.3,2.3,49,0.00,CLR,,0.00,WeatherDisplay:10.37,2013-05-13 01:44:00,
2013-05-12 21:49:00,50.5,32.0,30.05,NW,313,0.0,0.0,49,0.00,CLR,,0.00,WeatherDisplay:10.37,2013-05-13 01:49:00,
2013-05-12 21:54:00,50.4,32.4,30.05,NW,313,0.0,0.0,50,0.00,CLR,,0.00,WeatherDisplay:10.37,2013-05-13 01:54:00,
2013-05-12 21:59:00,50.3,32.4,30.05,WNW,288,8.1,8.1,50,0.00,CLR,,0.00,WeatherDisplay:10.37,2013-05-13 01:59:00,
2013-05-12 22:04:00,50.3,32.4,30.06,WNW,285,0.0,0.0,50,0.00,CLR,,0.00,WeatherDisplay:10.37,2013-05-13 02:04:00,
2013-05-12 22:09:00,50.2,33.7,30.06,NNW,341,0.0,0.0,53,0.00,CLR,,0.00,WeatherDisplay:10.37,2013-05-13 02:09:00,
2013-05-12 22:14:00,50.1,32.2,30.06,NNW,342,0.0,0.0,50,0.00,CLR,,0.00,WeatherDisplay:10.37,2013-05-13 02:14:00,
2013-05-12 22:19:00,50.0,33.1,30.06,WNW,295,0.0,0.0,52,0.00,CLR,,0.00,WeatherDisplay:10.37,2013-05-13 02:19:00,
2013-05-12 22:24:00,49.9,33.0,30.06,NW,324,1.2,0.0,52,0.00,CLR,,0.00,WeatherDisplay:10.37,2013-05-13 02:24:00,
2013-05-12 22:29:00,49.8,32.9,30.06,WNW,293,0.0,0.0,52,0.00,CLR,,0.00,WeatherDisplay:10.37,2013-05-13 02:29:00,
2013-05-12 22:34:00,49.6,32.7,30.06,WNW,293,3.5,3.5,52,0.00,CLR,,0.00,WeatherDisplay:10.37,2013-05-13 02:34:00,
2013-05-12 22:39:00,49.5,33.1,30.06,WNW,295,0.0,0.0,53,0.00,CLR,,0.00,WeatherDisplay:10.37,2013-05-13 02:39:00,
2013-05-12 22:44:00,49.4,33.0,30.07,WNW,295,3.5,3.5,53,0.00,CLR,,0.00,WeatherDisplay:10.37,2013-05-13 02:44:00,
2013-05-12 22:49:00,49.2,33.7,30.07,WNW,295,0.0,0.0,55,0.00,CLR,,0.00,WeatherDisplay:10.37,2013-05-13 02:49:00,
2013-05-12 22:54:00,49.1,32.7,30.07,WSW,246,1.3,1.3,53,0.00,CLR,,0.00,WeatherDisplay:10.37,2013-05-13 02:54:00,
2013-05-12 22:59:00,48.9,32.5,30.07,WSW,257,2.3,2.3,53,0.00,CLR,,0.00,WeatherDisplay:10.37,2013-05-13 02:59:00,
2013-05-12 23:04:00,48.8,34.2,30.07,WNW,288,3.5,3.5,57,0.00,CLR,,0.00,WeatherDisplay:10.37,2013-05-13 03:04:00,
2013-05-12 23:09:00,48.5,33.1,30.07,WNW,288,0.0,0.0,55,0.00,CLR,,0.00,WeatherDisplay:10.37,2013-05-13 03:09:00,
2013-05-12 23:14:00,48.3,32.9,30.07,WNW,287,0.0,0.0,55,0.00,CLR,,0.00,WeatherDisplay:10.37,2013-05-13 03:14:00,
2013-05-12 23:19:00,48.1,33.1,30.07,NW,306,4.6,4.6,56,0.00,CLR,,0.00,WeatherDisplay:10.37,2013-05-13 03:19:00,
2013-05-12 23:24:00,47.9,32.9,30.08,NW,306,0.0,0.0,56,0.00,CLR,,0.00,WeatherDisplay:10.37,2013-05-13 03:24:00,
2013-05-12 23:29:00,47.7,33.2,30.07,NNW,335,0.0,0.0,57,0.00,CLR,,0.00,WeatherDisplay:10.37,2013-05-13 03:29:00,
2013-05-12 23:34:00,47.6,32.2,30.07,NNW,335,0.0,0.0,55,0.00,CLR,,0.00,WeatherDisplay:10.37,2013-05-13 03:34:00,
2013-05-12 23:39:00,47.6,32.7,30.07,North,8,0.0,0.0,56,0.00,CLR,,0.00,WeatherDisplay:10.37,2013-05-13 03:39:00,
2013-05-12 23:44:00,47.5,32.6,30.08,North,8,0.0,0.0,56,0.00,CLR,,0.00,WeatherDisplay:10.37,2013-05-13 03:44:00,
2013-05-12 23:49:00,47.3,32.8,30.08,North,8,0.0,0.0,57,0.00,CLR,,0.00,WeatherDisplay:10.37,2013-05-13 03:49:00,
2013-05-12 23:54:00,47.2,35.6,30.08,North,8,0.0,0.0,64,0.00,CLR,,0.00,WeatherDisplay:10.37,2013-05-13 03:54:00,
2013-05-12 23:59:00,46.9,33.3,30.08,NNW,333,0.0,0.0,59,0.00,CLR,,0.00,WeatherDisplay:10.37,2013-05-13 03:59:00,